QPF
0.03 0.06 0.06 0.02 0.02 0.02 0.02 0.01 0.01 0.01 0.01 0.01 0.01 0.00 0.00 0.00 0.00 0.00 0.00 0.00 0.00 0.01 0.01 0.01 0.01 0.01 0.01 0.01 0.02 0.01 0.01 0.01 0.02 0.03 0.05 0.07 0.07 0.06 0.05 0.04 0.04 0.03 0.02 0.02
0.02 0.04 0.03 0.01 0.01 0.02 0.02 0.02 0.01 0.01 0.01 0.01 0.01 0.01 0.00 0.00 0.00 0.00 0.00 0.00 0.00 0.01 0.01 0.02 0.02 0.02 0.02 0.01 0.01 0.01 0.01 0.01 0.01 0.02 0.03 0.05 0.08 0.09 0.06 0.05 0.05 0.03 0.02 0.03
0.02 0.02 0.01 0.01 0.01 0.02 0.02 0.02 0.02 0.02 0.02 0.02 0.01 0.01 0.01 0.01 0.00 0.00 0.00 0.00 0.00 0.01 0.01 0.01 0.02 0.02 0.02 0.02 0.02 0.01 0.01 0.01 0.01 0.01 0.03 0.04 0.06 0.11 0.12 0.08 0.07 0.05 0.03 0.03
0.01 0.01 0.01 0.02 0.03 0.02 0.02 0.01 0.01 0.02 0.02 0.02 0.01 0.02 0.01 0.01 0.00 0.00 0.00 0.01 0.01 0.01 0.01 0.01 0.01 0.01 0.01 0.02 0.02 0.01 0.01 0.01 0.01 0.01 0.03 0.04 0.05 0.08 0.11 0.09 0.07 0.06 0.05 0.03
0.01 0.01 0.02 0.03 0.03 0.02 0.02 0.01 0.01 0.01 0.02 0.02 0.02 0.02 0.02 0.01 0.01 0.00 0.01 0.01 0.01 0.01 0.01 0.01 0.01 0.01 0.01 0.01 0.01 0.01 0.01 0.02 0.02 0.02 0.03 0.04 0.05 0.06 0.07 0.09 0.09 0.08 0.06 0.05
0.01 0.01 0.01 0.02 0.02 0.02 0.02 0.02 0.02 0.01 0.02 0.03 0.01 0.02 0.02 0.01 0.01 0.01 0.01 0.01 0.01 0.01 0.01 0.01 0.01 0.02 0.02 0.02 0.01 0.01 0.01 0.01 0.02 0.02 0.02 0.04 0.05 0.06 0.07 0.09 0.09 0.10 0.08 0.06
0.01 0.01 0.01 0.02 0.03 0.04 0.03 0.04 0.05 0.06 0.05 0.03 0.01 0.02 0.03 0.02 0.01 0.01 0.01 0.01 0.01 0.01 0.01 0.01 0.01 0.02 0.02 0.02 0.02 0.01 0.01 0.01 0.02 0.02 0.02 0.02 0.03 0.04 0.06 0.08 0.08 0.08 0.08 0.07
0.00 0.01 0.01 0.01 0.02 0.04 0.03 0.03 0.03 0.03 0.02 0.01 0.01 0.02 0.02 0.01 0.01 0.01 0.01 0.01 0.01 0.01 0.01 0.01 0.01 0.01 0.01 0.02 0.02 0.01 0.01 0.01 0.02 0.02 0.02 0.02 0.03 0.03 0.05 0.06 0.07 0.07 0.06 0.05
0.01 0.01 0.01 0.01 0.01 0.02 0.02 0.02 0.02 0.03 0.02 0.02 0.01 0.01 0.01 0.01 0.00 0.01 0.01 0.01 0.01 0.01 0.01 0.01 0.01 0.01 0.01 0.01 0.02 0.02 0.01 0.01 0.02 0.02 0.02 0.02 0.02 0.03 0.04 0.05 0.06 0.06 0.06 0.05
0.02 0.02 0.00 0.01 0.01 0.02 0.02 0.02 0.02 0.04 0.04 0.03 0.02 0.01 0.01 0.00 0.00 0.00 0.01 0.01 0.01 0.01 0.01 0.01 0.01 0.01 0.01 0.01 0.02 0.02 0.02 0.02 0.02 0.02 0.03 0.03 0.03 0.03 0.04 0.04 0.05 0.06 0.06 0.06
0.02 0.02 0.01 0.01 0.02 0.03 0.03 0.03 0.03 0.03 0.03 0.02 0.02 0.02 0.01 0.01 0.01 0.01 0.01 0.01 0.01 0.01 0.01 0.01 0.01 0.01 0.01 0.01 0.01 0.01 0.02 0.02 0.02 0.03 0.03 0.04 0.04 0.04 0.04 0.05 0.05 0.05 0.05 0.06
0.01 0.02 0.02 0.01 0.01 0.02 0.03 0.03 0.03 0.04 0.04 0.03 0.03 0.03 0.02 0.01 0.01 0.01 0.01 0.01 0.01 0.01 0.01 0.01 0.01 0.01 0.01 0.01 0.01 0.01 0.01 0.02 0.02 0.02 0.02 0.03 0.04 0.05 0.05 0.05 0.05 0.05 0.05 0.05
0.02 0.03 0.02 0.02 0.01 0.01 0.02 0.03 0.03 0.04 0.04 0.03 0.03 0.04 0.02 0.01 0.01 0.01 0.01 0.01 0.01 0.01 0.01 0.01 0.01 0.01 0.01 0.01 0.02 0.01 0.01 0.01 0.01 0.02 0.02 0.03 0.04 0.05 0.05 0.06 0.06 0.06 0.06 0.05
0.03 0.03 0.02 0.02 0.01 0.01 0.02 0.02 0.02 0.03 0.03 0.02 0.02 0.03 0.03 0.02 0.01 0.01 0.01 0.01 0.01 0.01 0.01 0.01 0.01 0.01 0.01 0.01 0.02 0.01 0.01 0.01 0.01 0.02 0.02 0.02 0.03 0.04 0.05 0.05 0.06 0.06 0.06 0.05
0.02 0.02 0.01 0.01 0.01 0.01 0.01 0.01 0.01 0.02 0.02 0.02 0.01 0.01 0.02 0.02 0.02 0.02 0.01 0.01 0.01 0.01 0.01 0.01 0.02 0.02 0.02 0.02 0.02 0.01 0.01 0.01 0.01 0.02 0.02 0.02 0.03 0.03 0.04 0.05 0.05 0.06 0.06 0.05
0.01 0.02 0.01 0.01 0.01 0.01 0.01 0.01 0.01 0.01 0.01 0.01 0.01 0.01 0.02 0.02 0.02 0.02 0.02 0.01 0.01 0.01 0.01 0.01 0.02 0.02 0.02 0.02 0.02 0.02 0.02 0.01 0.01 0.02 0.02 0.02 0.03 0.03 0.03 0.04 0.04 0.05 0.05 0.05
0.02 0.02 0.02 0.01 0.01 0.01 0.01 0.01 0.01 0.01 0.01 0.01 0.01 0.01 0.01 0.01 0.01 0.02 0.02 0.02 0.02 0.01 0.01 0.01 0.01 0.02 0.02 0.02 0.02 0.02 0.02 0.01 0.02 0.02 0.02 0.02 0.02 0.03 0.03 0.03 0.03 0.04 0.04 0.04
0.02 0.02 0.02 0.02 0.01 0.01 0.01 0.00 0.00 0.01 0.01 0.01 0.01 0.01 0.01 0.01 0.02 0.02 0.02 0.02 0.02 0.01 0.01 0.01 0.01 0.01 0.02 0.02 0.02 0.02 0.02 0.01 0.01 0.02 0.02 0.02 0.02 0.02 0.02 0.02 0.02 0.03 0.03 0.03
0.01 0.01 0.02 0.02 0.01 0.01 0.01 0.00 0.00 0.01 0.01 0.01 0.01 0.01 0.01 0.01 0.01 0.02 0.02 0.01 0.02 0.02 0.01 0.01 0.01 0.02 0.01 0.01 0.01 0.01 0.01 0.02 0.02 0.02 0.03 0.03 0.03 0.03 0.03 0.02 0.02 0.02 0.02 0.03
0.01 0.01 0.02 0.02 0.02 0.01 0.00 0.00 0.00 0.01 0.01 0.01 0.01 0.01 0.01 0.01 0.01 0.01 0.01 0.01 0.01 0.01 0.01 0.01 0.01 0.01 0.01 0.02 0.02 0.01 0.01 0.02 0.02 0.03 0.03 0.03 0.03 0.03 0.03 0.02 0.02 0.02 0.02 0.02
0.01 0.01 0.01 0.01 0.02 0.01 0.00 0.00 0.01 0.01 0.01 0.01 0.01 0.01 0.01 0.01 0.01 0.01 0.01 0.01 0.01 0.01 0.01 0.01 0.01 0.01 0.01 0.02 0.02 0.02 0.02 0.02 0.02 0.03 0.03 0.03 0.03 0.03 0.02 0.02 0.02 0.02 0.02 0.02
0.01 0.01 0.01 0.01 0.02 0.01 0.01 0.00 0.01 0.01 0.01 0.01 0.01 0.01 0.01 0.01 0.01 0.01 0.01 0.01 0.00 0.00 0.00 0.01 0.01 0.01 0.01 0.01 0.02 0.02 0.02 0.02 0.02 0.02 0.03 0.03 0.03 0.02 0.02 0.02 0.02 0.02 0.02 0.02
0.01 0.01 0.01 0.01 0.01 0.01 0.01 0.01 0.01 0.01 0.01 0.01 0.01 0.01 0.01 0.01 0.00 0.00 0.00 0.00 0.00 0.00 0.00 0.00 0.00 0.01 0.01 0.01 0.01 0.02 0.02 0.02 0.02 0.02 0.03 0.03 0.03 0.02 0.02 0.02 0.02 0.02 0.02 0.02
0.01 0.01 0.01 0.01 0.01 0.01 0.01 0.01 0.01 0.01 0.01 0.01 0.01 0.01 0.01 0.01 0.00 0.00 0.00 0.00 0.00 0.00 0.00 0.00 0.00 0.00 0.01 0.01 0.01 0.01 0.01 0.02 0.02 0.02 0.02 0.02 0.02 0.02 0.02 0.02 0.02 0.02 0.02 0.02
0.01 0.01 0.01 0.01 0.01 0.01 0.01 0.01 0.01 0.01 0.01 0.01 0.01 0.01 0.01 0.01 0.00 0.00 0.00 0.00 0.00 0.00 0.00 0.00 0.00 0.00 0.00 0.01 0.01 0.01 0.02 0.02 0.02 0.02 0.02 0.02 0.02 0.02 0.02 0.02 0.02 0.02 0.02 0.02
0.01 0.01 0.01 0.01 0.01 0.01 0.01 0.01 0.01 0.01 0.01 0.00 0.01 0.00 0.00 0.01 0.01 0.00 0.00 0.00 0.00 0.00 0.00 0.00 0.00 0.00 0.01 0.01 0.01 0.01 0.02 0.02 0.01 0.02 0.02 0.02 0.01 0.02 0.02 0.02 0.02 0.02 0.02 0.02
MSLP
1014.53 1014.75 1014.98 1015.24 1015.57 1016.02 1016.66 1017.58 1018.85 1020.47 1022.42 1024.63 1026.99 1029.35 1031.55 1033.46 1034.99 1036.13 1036.88 1037.33 1037.56 1037.67 1037.73 1037.78 1037.81 1037.78 1037.64 1037.34 1036.84 1036.14 1035.28 1034.34 1033.41 1032.56 1031.86 1031.33 1030.95 1030.69 1030.49 1030.27 1030.00 1029.67 1029.28 1028.87
1014.89 1015.10 1015.29 1015.48 1015.68 1015.97 1016.44 1017.19 1018.30 1019.82 1021.73 1023.97 1026.41 1028.91 1031.29 1033.39 1035.10 1036.38 1037.24 1037.73 1037.96 1038.04 1038.05 1038.06 1038.07 1038.06 1037.98 1037.78 1037.40 1036.85 1036.14 1035.32 1034.47 1033.66 1032.96 1032.39 1031.95 1031.61 1031.32 1031.02 1030.69 1030.29 1029.85 1029.41
1015.37 1015.58 1015.73 1015.80 1015.84 1015.93 1016.15 1016.65 1017.54 1018.88 1020.69 1022.91 1025.42 1028.07 1030.66 1033.00 1034.95 1036.45 1037.46 1038.06 1038.34 1038.40 1038.37 1038.33 1038.31 1038.30 1038.27 1038.17 1037.94 1037.55 1037.00 1036.32 1035.58 1034.83 1034.14 1033.54 1033.03 1032.61 1032.24 1031.86 1031.46 1031.01 1030.53 1030.03
1015.97 1016.18 1016.26 1016.22 1016.07 1015.91 1015.85 1016.06 1016.67 1017.78 1019.44 1021.61 1024.17 1026.95 1029.76 1032.37 1034.60 1036.36 1037.59 1038.35 1038.71 1038.80 1038.74 1038.66 1038.60 1038.59 1038.61 1038.59 1038.49 1038.25 1037.86 1037.33 1036.70 1036.02 1035.34 1034.70 1034.13 1033.63 1033.17 1032.72 1032.26 1031.76 1031.24 1030.70
1016.64 1016.84 1016.87 1016.70 1016.38 1015.98 1015.64 1015.54 1015.86 1016.73 1018.21 1020.28 1022.86 1025.76 1028.76 1031.63 1034.15 1036.19 1037.67 1038.62 1039.10 1039.24 1039.20 1039.09 1039.00 1038.98 1039.02 1039.07 1039.07 1038.96 1038.71 1038.30 1037.76 1037.12 1036.45 1035.78 1035.14 1034.56 1034.02 1033.51 1033.00 1032.47 1031.91 1031.35
1017.34 1017.53 1017.52 1017.26 1016.79 1016.19 1015.61 1015.25 1015.30 1015.93 1017.23 1019.20 1021.75 1024.72 1027.87 1030.96 1033.74 1036.03 1037.76 1038.90 1039.52 1039.75 1039.73 1039.61 1039.50 1039.47 1039.51 1039.60 1039.67 1039.65 1039.49 1039.17 1038.69 1038.08 1037.39 1036.68 1035.98 1035.33 1034.72 1034.16 1033.61 1033.07 1032.50 1031.92
1018.01 1018.22 1018.20 1017.90 1017.34 1016.61 1015.87 1015.32 1015.17 1015.61 1016.73 1018.58 1021.07 1024.05 1027.29 1030.51 1033.47 1035.97 1037.89 1039.21 1039.97 1040.28 1040.31 1040.20 1040.08 1040.03 1040.06 1040.16 1040.26 1040.29 1040.18 1039.90 1039.44 1038.83 1038.11 1037.35 1036.59 1035.88 1035.22 1034.62 1034.06 1033.51 1032.96 1032.38
1018.66 1018.89 1018.89 1018.60 1018.04 1017.29 1016.49 1015.85 1015.59 1015.89 1016.88 1018.60 1020.99 1023.91 1027.13 1030.40 1033.44 1036.05 1038.10 1039.55 1040.42 1040.82 1040.90 1040.81 1040.69 1040.62 1040.64 1040.72 1040.81 1040.84 1040.73 1040.45 1039.98 1039.35 1038.60 1037.79 1036.97 1036.21 1035.52 1034.90 1034.34 1033.80 1033.27 1032.72
1019.27 1019.55 1019.61 1019.39 1018.91 1018.23 1017.49 1016.87 1016.59 1016.83 1017.72 1019.31 1021.57 1024.35 1027.47 1030.66 1033.67 1036.29 1038.39 1039.90 1040.85 1041.32 1041.45 1041.39 1041.28 1041.20 1041.19 1041.24 1041.29 1041.29 1041.15 1040.83 1040.33 1039.66 1038.86 1038.01 1037.15 1036.35 1035.64 1035.02 1034.47 1033.96 1033.46 1032.94
1019.87 1020.20 1020.35 1020.26 1019.94 1019.42 1018.83 1018.33 1018.12 1018.36 1019.18 1020.65 1022.73 1025.32 1028.23 1031.25 1034.12 1036.65 1038.71 1040.23 1041.21 1041.74 1041.92 1041.91 1041.82 1041.73 1041.70 1041.70 1041.70 1041.63 1041.44 1041.07 1040.51 1039.80 1038.96 1038.07 1037.19 1036.38 1035.65 1035.03 1034.50 1034.02 1033.55 1033.05
1020.49 1020.87 1021.13 1021.20 1021.08 1020.78 1020.41 1020.10 1020.01 1020.30 1021.09 1022.43 1024.32 1026.66 1029.31 1032.06 1034.71 1037.07 1039.02 1040.49 1041.48 1042.05 1042.29 1042.33 1042.27 1042.20 1042.14 1042.10 1042.03 1041.89 1041.62 1041.19 1040.58 1039.82 1038.96 1038.05 1037.16 1036.34 1035.62 1035.01 1034.48 1034.01 1033.56 1033.08
1021.14 1021.57 1021.94 1022.17 1022.25 1022.20 1022.07 1021.97 1022.04 1022.41 1023.18 1024.40 1026.09 1028.16 1030.50 1032.95 1035.32 1037.48 1039.28 1040.68 1041.66 1042.26 1042.57 1042.66 1042.65 1042.60 1042.52 1042.43 1042.30 1042.08 1041.74 1041.23 1040.58 1039.78 1038.90 1037.99 1037.11 1036.30 1035.59 1034.98 1034.46 1033.99 1033.52 1033.03
1021.83 1022.30 1022.74 1023.11 1023.38 1023.55 1023.65 1023.77 1024.00 1024.45 1025.20 1026.32 1027.80 1029.60 1031.64 1033.78 1035.88 1037.81 1039.46 1040.78 1041.75 1042.39 1042.76 1042.93 1042.97 1042.94 1042.85 1042.72 1042.52 1042.23 1041.80 1041.24 1040.54 1039.73 1038.85 1037.95 1037.09 1036.30 1035.60 1034.99 1034.46 1033.96 1033.46 1032.93
1022.53 1023.01 1023.51 1023.98 1024.39 1024.73 1025.03 1025.32 1025.70 1026.22 1026.97 1027.99 1029.30 1030.86 1032.62 1034.48 1036.32 1038.05 1039.57 1040.82 1041.79 1042.47 1042.91 1043.15 1043.25 1043.23 1043.14 1042.96 1042.69 1042.32 1041.83 1041.21 1040.48 1039.67 1038.80 1037.94 1037.10 1036.34 1035.65 1035.04 1034.48 1033.94 1033.38 1032.79
1023.21 1023.68 1024.19 1024.71 1025.21 1025.68 1026.12 1026.55 1027.04 1027.62 1028.37 1029.32 1030.49 1031.86 1033.40 1035.02 1036.66 1038.22 1039.63 1040.84 1041.81 1042.54 1043.04 1043.34 1043.47 1043.47 1043.36 1043.13 1042.80 1042.36 1041.81 1041.15 1040.40 1039.60 1038.77 1037.94 1037.15 1036.42 1035.74 1035.12 1034.53 1033.93 1033.32 1032.66
1023.82 1024.25 1024.75 1025.28 1025.83 1026.37 1026.90 1027.44 1028.01 1028.66 1029.42 1030.33 1031.40 1032.64 1034.01 1035.46 1036.94 1038.38 1039.70 1040.87 1041.84 1042.60 1043.14 1043.48 1043.64 1043.64 1043.49 1043.22 1042.82 1042.32 1041.72 1041.04 1040.29 1039.51 1038.72 1037.95 1037.21 1036.52 1035.86 1035.23 1034.61 1033.96 1033.28 1032.55
1024.31 1024.71 1025.18 1025.70 1026.26 1026.85 1027.45 1028.06 1028.71 1029.42 1030.21 1031.11 1032.13 1033.28 1034.54 1035.87 1037.23 1038.57 1039.82 1040.94 1041.90 1042.66 1043.21 1043.56 1043.72 1043.70 1043.51 1043.19 1042.74 1042.19 1041.55 1040.86 1040.13 1039.39 1038.66 1037.95 1037.28 1036.63 1036.00 1035.37 1034.72 1034.03 1033.30 1032.51
1024.67 1025.04 1025.49 1026.00 1026.58 1027.19 1027.85 1028.53 1029.26 1030.03 1030.87 1031.79 1032.80 1033.91 1035.09 1036.33 1037.59 1038.83 1040.00 1041.06 1041.96 1042.69 1043.22 1043.54 1043.67 1043.61 1043.38 1043.01 1042.52 1041.95 1041.30 1040.62 1039.93 1039.24 1038.58 1037.94 1037.33 1036.74 1036.14 1035.52 1034.86 1034.16 1033.39 1032.57
1024.93 1025.29 1025.74 1026.26 1026.86 1027.52 1028.24 1029.01 1029.82 1030.67 1031.57 1032.53 1033.54 1034.61 1035.74 1036.89 1038.05 1039.17 1040.23 1041.19 1042.00 1042.65 1043.11 1043.38 1043.46 1043.35 1043.09 1042.69 1042.18 1041.61 1040.98 1040.34 1039.70 1039.08 1038.49 1037.92 1037.37 1036.83 1036.27 1035.67 1035.03 1034.32 1033.54 1032.72
1025.14 1025.53 1026.00 1026.56 1027.21 1027.94 1028.74 1029.60 1030.50 1031.44 1032.40 1033.39 1034.41 1035.44 1036.49 1037.54 1038.57 1039.55 1040.46 1041.28 1041.96 1042.50 1042.86 1043.06 1043.07 1042.93 1042.64 1042.24 1041.75 1041.20 1040.62 1040.03 1039.46 1038.91 1038.39 1037.89 1037.40 1036.91 1036.38 1035.82 1035.19 1034.50 1033.74 1032.93
1025.38 1025.83 1026.36 1027.00 1027.73 1028.55 1029.44 1030.39 1031.37 1032.38 1033.39 1034.39 1035.38 1036.35 1037.30 1038.22 1039.08 1039.89 1040.63 1041.27 1041.79 1042.19 1042.45 1042.56 1042.53 1042.37 1042.09 1041.71 1041.27 1040.78 1040.26 1039.75 1039.25 1038.77 1038.31 1037.86 1037.42 1036.96 1036.46 1035.92 1035.32 1034.65 1033.93 1033.16
1025.76 1026.29 1026.91 1027.64 1028.46 1029.37 1030.35 1031.37 1032.42 1033.46 1034.48 1035.46 1036.39 1037.26 1038.08 1038.82 1039.50 1040.11 1040.65 1041.10 1041.46 1041.73 1041.89 1041.93 1041.88 1041.72 1041.47 1041.16 1040.78 1040.37 1039.94 1039.50 1039.07 1038.65 1038.24 1037.83 1037.41 1036.96 1036.48 1035.95 1035.38 1034.74 1034.06 1033.34
1026.34 1026.96 1027.68 1028.50 1029.41 1030.39 1031.43 1032.50 1033.56 1034.59 1035.57 1036.48 1037.31 1038.05 1038.70 1039.25 1039.74 1040.14 1040.48 1040.76 1040.97 1041.12 1041.20 1041.21 1041.15 1041.03 1040.85 1040.62 1040.34 1040.02 1039.68 1039.32 1038.94 1038.56 1038.18 1037.77 1037.35 1036.90 1036.42 1035.89 1035.32 1034.71 1034.07 1033.39
1027.15 1027.86 1028.66 1029.56 1030.52 1031.54 1032.60 1033.65 1034.67 1035.64 1036.53 1037.32 1038.01 1038.58 1039.05 1039.42 1039.71 1039.94 1040.11 1040.24 1040.33 1040.40 1040.44 1040.45 1040.42 1040.36 1040.26 1040.12 1039.94 1039.72 1039.46 1039.16 1038.83 1038.47 1038.09 1037.67 1037.23 1036.76 1036.25 1035.71 1035.15 1034.55 1033.93 1033.30
1028.17 1028.96 1029.82 1030.74 1031.72 1032.72 1033.72 1034.70 1035.62 1036.47 1037.22 1037.86 1038.38 1038.78 1039.08 1039.29 1039.42 1039.50 1039.55 1039.58 1039.60 1039.63 1039.66 1039.70 1039.73 1039.74 1039.73 1039.68 1039.58 1039.44 1039.24 1038.99 1038.69 1038.33 1037.93 1037.50 1037.02 1036.51 1035.98 1035.42 1034.85 1034.26 1033.66 1033.05
1029.34 1030.16 1031.04 1031.95 1032.87 1033.79 1034.68 1035.52 1036.29 1036.97 1037.55 1038.01 1038.37 1038.62 1038.78 1038.86 1038.88 1038.87 1038.85 1038.84 1038.84 1038.87 1038.92 1039.00 1039.08 1039.16 1039.22 1039.24 1039.22 1039.13 1038.97 1038.75 1038.46 1038.10 1037.68 1037.22 1036.71 1036.18 1035.62 1035.04 1034.46 1033.87 1033.28 1032.69
Thickness
5551 5552 5549 5546 5543 5543 5542 5542 5543 5543 5536 5532 5534 5532 5528 5523 5520 5519 5518 5517 5515 5515 5515 5515 5515 5517 5519 5520 5522 5523 5524 5525 5524 5524 5525 5525 5526 5527 5528 5528 5528 5528 5527 5526
5543 5540 5535 5532 5530 5528 5529 5529 5531 5526 5520 5519 5520 5519 5516 5510 5506 5503 5503 5503 5502 5501 5502 5502 5503 5505 5506 5508 5509 5511 5512 5513 5514 5514 5515 5515 5516 5517 5518 5517 5517 5517 5517 5516
5532 5527 5521 5518 5517 5517 5519 5519 5518 5512 5504 5504 5504 5511 5505 5498 5493 5489 5488 5488 5487 5486 5486 5488 5489 5491 5493 5495 5497 5499 5501 5502 5502 5503 5504 5504 5504 5505 5506 5506 5507 5506 5506 5506
5517 5511 5508 5507 5507 5506 5509 5507 5502 5495 5496 5503 5500 5512 5505 5491 5485 5480 5476 5474 5473 5472 5473 5474 5475 5478 5480 5482 5484 5486 5488 5490 5491 5492 5493 5495 5497 5498 5499 5498 5497 5496 5496 5495
5505 5499 5498 5498 5497 5494 5495 5492 5490 5488 5489 5489 5492 5494 5500 5481 5476 5471 5464 5461 5459 5458 5459 5459 5461 5463 5465 5468 5470 5473 5476 5478 5479 5481 5482 5484 5486 5487 5488 5487 5487 5486 5485 5485
5492 5487 5486 5486 5484 5482 5480 5481 5481 5479 5480 5482 5493 5490 5495 5474 5465 5461 5453 5448 5445 5444 5444 5445 5445 5447 5450 5454 5457 5460 5463 5465 5467 5469 5471 5473 5474 5475 5476 5476 5476 5476 5475 5474
5486 5482 5476 5473 5475 5473 5472 5475 5481 5482 5480 5490 5481 5479 5473 5454 5444 5442 5438 5434 5431 5430 5430 5430 5431 5433 5435 5439 5442 5445 5449 5452 5454 5456 5458 5461 5463 5464 5466 5466 5466 5466 5466 5465
5479 5480 5470 5464 5464 5463 5463 5465 5469 5473 5485 5488 5468 5468 5454 5431 5424 5422 5420 5417 5415 5414 5415 5415 5415 5417 5420 5423 5427 5430 5435 5438 5441 5443 5446 5448 5451 5452 5454 5455 5455 5456 5456 5456
5468 5470 5458 5453 5451 5453 5453 5454 5450 5452 5455 5457 5464 5449 5432 5418 5413 5408 5406 5404 5401 5400 5400 5400 5402 5403 5405 5408 5412 5416 5420 5424 5427 5430 5433 5436 5438 5440 5442 5443 5443 5443 5444 5444
5450 5449 5449 5443 5443 5439 5440 5440 5439 5440 5444 5456 5458 5448 5443 5413 5404 5398 5393 5390 5387 5385 5386 5386 5387 5389 5391 5394 5397 5401 5405 5409 5412 5416 5419 5422 5425 5427 5429 5430 5431 5432 5432 5432
5438 5437 5439 5437 5434 5436 5427 5425 5427 5432 5432 5439 5447 5443 5407 5398 5389 5385 5381 5376 5374 5373 5372 5373 5374 5375 5377 5380 5384 5387 5391 5394 5397 5401 5405 5407 5410 5413 5415 5417 5419 5420 5421 5421
5428 5428 5430 5428 5419 5413 5416 5415 5415 5419 5418 5418 5428 5419 5378 5376 5372 5369 5366 5363 5360 5359 5359 5359 5361 5363 5365 5368 5370 5373 5376 5379 5383 5386 5390 5393 5396 5399 5401 5404 5405 5407 5408 5409
5418 5415 5423 5429 5416 5403 5398 5395 5395 5399 5403 5407 5413 5406 5365 5361 5358 5355 5352 5350 5347 5346 5346 5347 5349 5350 5353 5354 5357 5359 5362 5365 5368 5371 5375 5379 5382 5385 5388 5390 5392 5393 5395 5397
5410 5406 5413 5424 5422 5404 5391 5384 5381 5386 5395 5398 5396 5392 5364 5354 5348 5344 5340 5337 5336 5335 5334 5334 5336 5338 5339 5341 5343 5345 5347 5350 5354 5358 5361 5364 5368 5371 5374 5376 5378 5380 5382 5383
5400 5399 5395 5395 5393 5388 5383 5378 5372 5370 5376 5380 5380 5369 5360 5344 5337 5333 5329 5326 5325 5324 5322 5322 5323 5325 5326 5328 5330 5331 5334 5337 5340 5344 5348 5350 5353 5356 5359 5361 5363 5366 5368 5370
5387 5386 5380 5379 5379 5374 5368 5369 5364 5359 5356 5356 5353 5350 5337 5328 5324 5321 5317 5315 5314 5312 5311 5310 5311 5312 5313 5314 5316 5318 5321 5324 5327 5331 5334 5337 5339 5342 5344 5346 5349 5351 5353 5356
5377 5372 5373 5383 5366 5361 5369 5361 5353 5347 5341 5340 5344 5339 5321 5318 5315 5311 5306 5304 5302 5300 5299 5298 5299 5299 5300 5301 5302 5305 5307 5310 5313 5317 5320 5323 5326 5328 5330 5332 5334 5337 5340 5342
5361 5362 5362 5366 5359 5363 5363 5336 5337 5332 5325 5320 5319 5314 5309 5306 5302 5298 5295 5291 5289 5287 5286 5286 5286 5287 5288 5288 5290 5292 5295 5297 5300 5303 5306 5309 5312 5314 5316 5318 5320 5323 5325 5328
5350 5352 5354 5356 5360 5362 5345 5327 5319 5318 5320 5309 5306 5302 5298 5293 5294 5294 5285 5279 5276 5275 5274 5274 5273 5274 5275 5277 5278 5280 5283 5285 5287 5290 5293 5295 5297 5299 5301 5304 5306 5308 5311 5314
5334 5336 5344 5343 5350 5356 5345 5314 5305 5307 5315 5301 5294 5290 5286 5284 5295 5294 5275 5268 5266 5264 5263 5263 5263 5263 5264 5265 5266 5268 5270 5272 5274 5277 5279 5282 5284 5286 5288 5290 5292 5294 5297 5300
5329 5326 5329 5334 5336 5339 5311 5296 5297 5311 5315 5288 5282 5279 5273 5274 5275 5268 5261 5258 5255 5254 5252 5251 5251 5252 5252 5253 5254 5256 5258 5259 5261 5263 5267 5269 5271 5273 5275 5277 5279 5281 5284 5287
5327 5326 5316 5319 5324 5325 5288 5287 5292 5293 5277 5273 5270 5266 5262 5259 5254 5252 5250 5247 5245 5243 5242 5241 5240 5240 5240 5240 5241 5244 5245 5247 5249 5252 5255 5258 5260 5261 5263 5265 5267 5269 5271 5274
5307 5309 5313 5308 5310 5288 5277 5276 5269 5264 5262 5260 5257 5253 5249 5245 5243 5241 5239 5236 5234 5232 5231 5230 5228 5229 5229 5229 5229 5231 5233 5235 5237 5241 5244 5246 5248 5250 5251 5253 5256 5257 5259 5262
5289 5276 5283 5281 5284 5274 5265 5259 5254 5250 5248 5245 5242 5239 5236 5234 5232 5229 5227 5225 5223 5221 5219 5218 5217 5218 5218 5218 5218 5219 5221 5223 5225 5229 5232 5234 5236 5238 5240 5241 5243 5245 5247 5250
5283 5270 5271 5270 5269 5261 5257 5249 5244 5239 5235 5231 5229 5226 5224 5222 5219 5216 5214 5213 5211 5209 5208 5206 5206 5206 5207 5207 5207 5208 5210 5211 5214 5217 5220 5222 5225 5227 5228 5230 5232 5234 5236 5237
5264 5261 5267 5275 5263 5256 5252 5240 5233 5228 5225 5221 5217 5215 5212 5209 5207 5204 5202 5200 5198 5197 5196 5195 5195 5195 5195 5196 5197 5198 5199 5200 5202 5206 5209 5211 5213 5215 5217 5219 5221 5223 5224 5227